owner,sensor,date,latitude,longitude,air_pressure(mBar),qcFlag 
TABS,ioos:station:wmo:42043:1,2011-08-01T00:00:00Z,28.9818,-94.9186,1015.96,11111222 
TABS,ioos:station:wmo:42043:1,2011-08-01T00:30:00Z,28.9818,-94.9186,1016.1,11111222 
TABS,ioos:station:wmo:42043:1,2011-08-01T01:00:00Z,28.9818,-94.9186,1016.01,11111222 
TABS,ioos:station:wmo:42043:1,2011-08-01T01:30:00Z,28.9818,-94.9186,1016.12,11111222 
TABS,ioos:station:wmo:42043:1,2011-08-01T02:00:00Z,28.9818,-94.9186,1015.95,11111222 
TABS,ioos:station:wmo:42043:1,2011-08-01T02:30:00Z,28.9818,-94.9186,1016.09,11111222 
TABS,ioos:station:wmo:42043:1,2011-08-01T03:00:00Z,28.9818,-94.9186,1016.3,11111222 
TABS,ioos:station:wmo:42043:1,2011-08-01T03:30:00Z,28.9818,-94.9186,1016.6,11111222 
TABS,ioos:station:wmo:42043:1,2011-08-01T04:00:00Z,28.9818,-94.9186,1016.73,11111222 
TABS,ioos:station:wmo:42043:1,2011-08-01T04:30:00Z,28.9818,-94.9186,1016.81,11111222 
TABS,ioos:station:wmo:42043:1,2011-08-01T05:00:00Z,28.9818,-94.9186,1016.85,11111222 
TABS,ioos:station:wmo:42043:1,2011-08-01T05:30:00Z,28.9818,-94.9186,1016.58,11111222 
TABS,ioos:station:wmo:42043:1,2011-08-01T06:00:00Z,28.9818,-94.9186,1016.49,11111222 
TABS,ioos:station:wmo:42043:1,2011-08-01T06:30:00Z,28.9818,-94.9186,1016.11,11111222 
TABS,ioos:station:wmo:42043:1,2011-08-01T07:00:00Z,28.9818,-94.9186,1015.86,11111222 
TABS,ioos:station:wmo:42043:1,2011-08-01T07:30:00Z,28.9818,-94.9186,1015.64,11111222 
TABS,ioos:station:wmo:42043:1,2011-08-01T08:00:00Z,28.9818,-94.9186,1015.62,11111222 
TABS,ioos:station:wmo:42043:1,2011-08-01T08:30:00Z,28.9818,-94.9186,1015.77,11111222 
TABS,ioos:station:wmo:42043:1,2011-08-01T09:00:00Z,28.9818,-94.9186,1015.84,11111222 
TABS,ioos:station:wmo:42043:1,2011-08-01T09:30:00Z,28.9818,-94.9186,1015.99,11111222 
TABS,ioos:station:wmo:42043:1,2011-08-01T10:00:00Z,28.9818,-94.9186,1016.1,11111222 
TABS,ioos:station:wmo:42043:1,2011-08-01T10:30:00Z,28.9818,-94.9186,1016.18,11111222 
TABS,ioos:station:wmo:42043:1,2011-08-01T11:00:00Z,28.9818,-94.9186,1016.32,11111222 
TABS,ioos:station:wmo:42043:1,2011-08-01T11:30:00Z,28.9818,-94.9186,1016.48,11111222 
TABS,ioos:station:wmo:42043:1,2011-08-01T12:00:00Z,28.9818,-94.9186,1016.52,11111222 
TABS,ioos:station:wmo:42043:1,2011-08-01T12:30:00Z,28.9818,-94.9186,1016.47,11111222 
TABS,ioos:station:wmo:42043:1,2011-08-01T13:00:00Z,28.9818,-94.9186,1016.67,11111222 
TABS,ioos:station:wmo:42043:1,2011-08-01T13:30:00Z,28.9818,-94.9186,1016.81,11111222 
TABS,ioos:station:wmo:42043:1,2011-08-01T14:00:00Z,28.9818,-94.9186,1017.08,11111222 
TABS,ioos:station:wmo:42043:1,2011-08-01T14:30:00Z,28.9818,-94.9186,1017.22,11111222 
TABS,ioos:station:wmo:42043:1,2011-08-01T15:00:00Z,28.9818,-94.9186,1017.23,11111222 
TABS,ioos:station:wmo:42043:1,2011-08-01T15:30:00Z,28.9818,-94.9186,1017.33,11111222 
TABS,ioos:station:wmo:42043:1,2011-08-01T16:00:00Z,28.9818,-94.9186,1017.08,11111222 
TABS,ioos:station:wmo:42043:1,2011-08-01T16:30:00Z,28.9818,-94.9186,1017.24,11111222 
TABS,ioos:station:wmo:42043:1,2011-08-01T17:00:00Z,28.9818,-94.9186,1017.27,11111222 
TABS,ioos:station:wmo:42043:1,2011-08-01T17:30:00Z,28.9818,-94.9186,1017.05,11111222 
TABS,ioos:station:wmo:42043:1,2011-08-01T18:00:00Z,28.9818,-94.9186,1016.35,11111222 
TABS,ioos:station:wmo:42043:1,2011-08-01T18:30:00Z,28.9818,-94.9186,1016.09,11111222 
TABS,ioos:station:wmo:42043:1,2011-08-01T19:00:00Z,28.9818,-94.9186,1016.07,11111222 
TABS,ioos:station:wmo:42043:1,2011-08-01T19:30:00Z,28.9818,-94.9186,1015.7,11111222 
TABS,ioos:station:wmo:42043:1,2011-08-01T20:00:00Z,28.9818,-94.9186,1015.15,11111222 
TABS,ioos:station:wmo:42043:1,2011-08-01T20:30:00Z,28.9818,-94.9186,1014.71,11111222 
TABS,ioos:station:wmo:42043:1,2011-08-01T21:00:00Z,28.9818,-94.9186,1014.17,11111222 
TABS,ioos:station:wmo:42043:1,2011-08-01T21:30:00Z,28.9818,-94.9186,1013.97,11111222 
TABS,ioos:station:wmo:42043:1,2011-08-01T22:00:00Z,28.9818,-94.9186,1013.68,11111222 
TABS,ioos:station:wmo:42043:1,2011-08-01T22:30:00Z,28.9818,-94.9186,1013.51,11111222 
TABS,ioos:station:wmo:42043:1,2011-08-01T23:00:00Z,28.9818,-94.9186,1013.59,11111222 
TABS,ioos:station:wmo:42043:1,2011-08-01T23:30:00Z,28.9818,-94.9186,1013.65,11111222 
TABS,ioos:station:wmo:42043:1,2011-08-02T00:00:00Z,28.9818,-94.9186,1013.31,11111222 
TABS,ioos:station:wmo:42043:1,2011-08-02T00:30:00Z,28.9818,-94.9186,1012.99,11111222 
TABS,ioos:station:wmo:42043:1,2011-08-02T01:00:00Z,28.9818,-94.9186,1013.08,11111222 
TABS,ioos:station:wmo:42043:1,2011-08-02T01:30:00Z,28.9818,-94.9186,1013.08,11111222 
TABS,ioos:station:wmo:42043:1,2011-08-02T02:00:00Z,28.9818,-94.9186,1013.34,11111222 
TABS,ioos:station:wmo:42043:1,2011-08-02T02:30:00Z,28.9818,-94.9186,1013.43,11111222 
TABS,ioos:station:wmo:42043:1,2011-08-02T03:00:00Z,28.9818,-94.9186,1014.08,11111222 
TABS,ioos:station:wmo:42043:1,2011-08-02T03:30:00Z,28.9818,-94.9186,1014.1,11111222 
TABS,ioos:station:wmo:42043:1,2011-08-02T04:00:00Z,28.9818,-94.9186,1014.08,11111222 
TABS,ioos:station:wmo:42043:1,2011-08-02T04:30:00Z,28.9818,-94.9186,1013.84,11111222 
TABS,ioos:station:wmo:42043:1,2011-08-02T05:00:00Z,28.9818,-94.9186,1013.86,11111222 
TABS,ioos:station:wmo:42043:1,2011-08-02T05:30:00Z,28.9818,-94.9186,1013.79,11111222 
TABS,ioos:station:wmo:42043:1,2011-08-02T06:00:00Z,28.9818,-94.9186,1013.67,11111222 
TABS,ioos:station:wmo:42043:1,2011-08-02T06:30:00Z,28.9818,-94.9186,1013.59,11111222 
TABS,ioos:station:wmo:42043:1,2011-08-02T07:00:00Z,28.9818,-94.9186,1013.3,11111222 
TABS,ioos:station:wmo:42043:1,2011-08-02T07:30:00Z,28.9818,-94.9186,1013.1,11111222 
TABS,ioos:station:wmo:42043:1,2011-08-02T08:00:00Z,28.9818,-94.9186,1012.94,11111222 
TABS,ioos:station:wmo:42043:1,2011-08-02T08:30:00Z,28.9818,-94.9186,1012.79,11111222 
TABS,ioos:station:wmo:42043:1,2011-08-02T09:00:00Z,28.9818,-94.9186,1012.83,11111222 
TABS,ioos:station:wmo:42043:1,2011-08-02T09:30:00Z,28.9818,-94.9186,1012.75,11111222 
TABS,ioos:station:wmo:42043:1,2011-08-02T10:00:00Z,28.9818,-94.9186,1012.55,11111222 
TABS,ioos:station:wmo:42043:1,2011-08-02T10:30:00Z,28.9818,-94.9186,1012.77,11111222 
TABS,ioos:station:wmo:42043:1,2011-08-02T11:00:00Z,28.9818,-94.9186,1012.94,11111222 
TABS,ioos:station:wmo:42043:1,2011-08-02T11:30:00Z,28.9818,-94.9186,1013.24,11111222 
TABS,ioos:station:wmo:42043:1,2011-08-02T12:00:00Z,28.9818,-94.9186,1013.23,11111222 
TABS,ioos:station:wmo:42043:1,2011-08-02T12:30:00Z,28.9818,-94.9186,1013.33,11111222 
TABS,ioos:station:wmo:42043:1,2011-08-02T13:00:00Z,28.9818,-94.9186,1013.67,11111222 
TABS,ioos:station:wmo:42043:1,2011-08-02T13:30:00Z,28.9818,-94.9186,1013.74,11111222 
TABS,ioos:station:wmo:42043:1,2011-08-02T14:00:00Z,28.9818,-94.9186,1013.81,11111222 
TABS,ioos:station:wmo:42043:1,2011-08-02T14:30:00Z,28.9818,-94.9186,1014.11,11111222 
TABS,ioos:station:wmo:42043:1,2011-08-02T15:00:00Z,28.9818,-94.9186,1014.23,11111222 
TABS,ioos:station:wmo:42043:1,2011-08-02T15:30:00Z,28.9818,-94.9186,1014.33,11111222 
TABS,ioos:station:wmo:42043:1,2011-08-02T16:00:00Z,28.9818,-94.9186,1014.49,11111222 
TABS,ioos:station:wmo:42043:1,2011-08-02T16:30:00Z,28.9818,-94.9186,1014.67,11111222 
TABS,ioos:station:wmo:42043:1,2011-08-02T17:00:00Z,28.9818,-94.9186,1014.55,11111222 
TABS,ioos:station:wmo:42043:1,2011-08-02T17:30:00Z,28.9818,-94.9186,1014.25,11111222 
TABS,ioos:station:wmo:42043:1,2011-08-02T18:00:00Z,28.9818,-94.9186,1013.94,11111222 
TABS,ioos:station:wmo:42043:1,2011-08-02T18:30:00Z,28.9818,-94.9186,1013.64,11111222 
TABS,ioos:station:wmo:42043:1,2011-08-02T19:00:00Z,28.9818,-94.9186,1013.44,11111222 
TABS,ioos:station:wmo:42043:1,2011-08-02T19:30:00Z,28.9818,-94.9186,1013.2,11111222 
TABS,ioos:station:wmo:42043:1,2011-08-02T20:00:00Z,28.9818,-94.9186,1013.06,11111222 
TABS,ioos:station:wmo:42043:1,2011-08-02T20:30:00Z,28.9818,-94.9186,1012.8,11111222 
TABS,ioos:station:wmo:42043:1,2011-08-02T21:00:00Z,28.9818,-94.9186,1012.33,11111222 
TABS,ioos:station:wmo:42043:1,2011-08-02T21:30:00Z,28.9818,-94.9186,1012.13,11111222 
TABS,ioos:station:wmo:42043:1,2011-08-02T22:00:00Z,28.9818,-94.9186,1011.88,11111222 
TABS,ioos:station:wmo:42043:1,2011-08-02T22:30:00Z,28.9818,-94.9186,1011.68,11111222 
TABS,ioos:station:wmo:42043:1,2011-08-02T23:00:00Z,28.9818,-94.9186,1011.49,11111222 
TABS,ioos:station:wmo:42043:1,2011-08-02T23:30:00Z,28.9818,-94.9186,1011.37,11111222 
TABS,ioos:station:wmo:42043:1,2011-08-03T00:00:00Z,28.9818,-94.9186,1011.45,11111222 
TABS,ioos:station:wmo:42043:1,2011-08-03T00:30:00Z,28.9818,-94.9186,1011.59,11111222 
TABS,ioos:station:wmo:42043:1,2011-08-03T01:00:00Z,28.9818,-94.9186,1011.41,11111222 
TABS,ioos:station:wmo:42043:1,2011-08-03T01:30:00Z,28.9818,-94.9186,1011.56,11111222 
TABS,ioos:station:wmo:42043:1,2011-08-03T02:00:00Z,28.9818,-94.9186,1011.67,11111222 
TABS,ioos:station:wmo:42043:1,2011-08-03T02:30:00Z,28.9818,-94.9186,1011.91,11111222 
TABS,ioos:station:wmo:42043:1,2011-08-03T03:00:00Z,28.9818,-94.9186,1012.09,11111222 
TABS,ioos:station:wmo:42043:1,2011-08-03T03:30:00Z,28.9818,-94.9186,1012.11,11111222 
TABS,ioos:station:wmo:42043:1,2011-08-03T04:00:00Z,28.9818,-94.9186,1012.26,11111222 
TABS,ioos:station:wmo:42043:1,2011-08-03T04:30:00Z,28.9818,-94.9186,1012.26,11111222 
TABS,ioos:station:wmo:42043:1,2011-08-03T05:00:00Z,28.9818,-94.9186,1012.24,11111222 
TABS,ioos:station:wmo:42043:1,2011-08-03T05:30:00Z,28.9818,-94.9186,1012.06,11111222 
TABS,ioos:station:wmo:42043:1,2011-08-03T06:00:00Z,28.9818,-94.9186,1011.85,11111222 
TABS,ioos:station:wmo:42043:1,2011-08-03T06:30:00Z,28.9818,-94.9186,1011.73,11111222 
TABS,ioos:station:wmo:42043:1,2011-08-03T07:00:00Z,28.9818,-94.9186,1011.56,11111222 
TABS,ioos:station:wmo:42043:1,2011-08-03T07:30:00Z,28.9818,-94.9186,1011.37,11111222 
TABS,ioos:station:wmo:42043:1,2011-08-03T08:00:00Z,28.9818,-94.9186,1011.46,11111222 
TABS,ioos:station:wmo:42043:1,2011-08-03T08:30:00Z,28.9818,-94.9186,1011.45,11111222 
TABS,ioos:station:wmo:42043:1,2011-08-03T09:00:00Z,28.9818,-94.9186,1011.34,11111222 
TABS,ioos:station:wmo:42043:1,2011-08-03T09:30:00Z,28.9818,-94.9186,1011.5,11111222 
TABS,ioos:station:wmo:42043:1,2011-08-03T10:00:00Z,28.9818,-94.9186,1011.46,11111222 
TABS,ioos:station:wmo:42043:1,2011-08-03T10:30:00Z,28.9818,-94.9186,1011.54,11111222 
TABS,ioos:station:wmo:42043:1,2011-08-03T11:00:00Z,28.9818,-94.9186,1011.71,11111222 
TABS,ioos:station:wmo:42043:1,2011-08-03T11:30:00Z,28.9818,-94.9186,1012.01,11111222 
TABS,ioos:station:wmo:42043:1,2011-08-03T12:00:00Z,28.9818,-94.9186,1012.26,11111222 
TABS,ioos:station:wmo:42043:1,2011-08-03T12:30:00Z,28.9818,-94.9186,1012.72,11111222 
TABS,ioos:station:wmo:42043:1,2011-08-03T13:00:00Z,28.9818,-94.9186,1013.08,11111222 
TABS,ioos:station:wmo:42043:1,2011-08-03T13:30:00Z,28.9818,-94.9186,1013.16,11111222 
TABS,ioos:station:wmo:42043:1,2011-08-03T14:00:00Z,28.9818,-94.9186,1013.41,11111222 
TABS,ioos:station:wmo:42043:1,2011-08-03T14:30:00Z,28.9818,-94.9186,1013.41,11111222 
TABS,ioos:station:wmo:42043:1,2011-08-03T15:00:00Z,28.9818,-94.9186,1013.52,11111222 
TABS,ioos:station:wmo:42043:1,2011-08-03T15:30:00Z,28.9818,-94.9186,1013.74,11111222 
TABS,ioos:station:wmo:42043:1,2011-08-03T16:00:00Z,28.9818,-94.9186,1013.75,11111222 
TABS,ioos:station:wmo:42043:1,2011-08-03T16:30:00Z,28.9818,-94.9186,1013.65,11111222 
TABS,ioos:station:wmo:42043:1,2011-08-03T17:00:00Z,28.9818,-94.9186,1013.44,11111222 
TABS,ioos:station:wmo:42043:1,2011-08-03T17:30:00Z,28.9818,-94.9186,1013.19,11111222 
TABS,ioos:station:wmo:42043:1,2011-08-03T18:00:00Z,28.9818,-94.9186,1012.94,11111222 
TABS,ioos:station:wmo:42043:1,2011-08-03T18:30:00Z,28.9818,-94.9186,1012.59,11111222 
TABS,ioos:station:wmo:42043:1,2011-08-03T19:00:00Z,28.9818,-94.9186,1012.31,11111222 
TABS,ioos:station:wmo:42043:1,2011-08-03T19:30:00Z,28.9818,-94.9186,1011.98,11111222 
TABS,ioos:station:wmo:42043:1,2011-08-03T20:00:00Z,28.9818,-94.9186,1011.61,11111222 
TABS,ioos:station:wmo:42043:1,2011-08-03T20:30:00Z,28.9818,-94.9186,1011.33,11111222 
TABS,ioos:station:wmo:42043:1,2011-08-03T21:00:00Z,28.9818,-94.9186,1011.22,11111222 
TABS,ioos:station:wmo:42043:1,2011-08-03T21:30:00Z,28.9818,-94.9186,1010.84,11111222 
TABS,ioos:station:wmo:42043:1,2011-08-03T22:00:00Z,28.9818,-94.9186,1010.76,11111222 
TABS,ioos:station:wmo:42043:1,2011-08-03T22:30:00Z,28.9818,-94.9186,1010.62,11111222 
TABS,ioos:station:wmo:42043:1,2011-08-03T23:00:00Z,28.9818,-94.9186,1010.5,11111222 
TABS,ioos:station:wmo:42043:1,2011-08-03T23:30:00Z,28.9818,-94.9186,1010.32,11111222 
TABS,ioos:station:wmo:42043:1,2011-08-04T00:00:00Z,28.9818,-94.9186,1010.29,11111222 
TABS,ioos:station:wmo:42043:1,2011-08-04T00:30:00Z,28.9818,-94.9186,1010.28,11111222 
TABS,ioos:station:wmo:42043:1,2011-08-04T01:00:00Z,28.9818,-94.9186,1010.43,11111222 
TABS,ioos:station:wmo:42043:1,2011-08-04T01:30:00Z,28.9818,-94.9186,1010.7,11111222 
TABS,ioos:station:wmo:42043:1,2011-08-04T02:00:00Z,28.9818,-94.9186,1010.77,11111222 
TABS,ioos:station:wmo:42043:1,2011-08-04T02:30:00Z,28.9818,-94.9186,1010.91,11111222 
TABS,ioos:station:wmo:42043:1,2011-08-04T03:00:00Z,28.9818,-94.9186,1010.86,11111222 
TABS,ioos:station:wmo:42043:1,2011-08-04T03:30:00Z,28.9818,-94.9186,1011.0,11111222 
TABS,ioos:station:wmo:42043:1,2011-08-04T04:00:00Z,28.9818,-94.9186,1011.1,11111222 
TABS,ioos:station:wmo:42043:1,2011-08-04T04:30:00Z,28.9818,-94.9186,1010.95,11111222 
TABS,ioos:station:wmo:42043:1,2011-08-04T05:00:00Z,28.9818,-94.9186,1010.94,11111222 
TABS,ioos:station:wmo:42043:1,2011-08-04T05:30:00Z,28.9818,-94.9186,1011.07,11111222 
TABS,ioos:station:wmo:42043:1,2011-08-04T06:00:00Z,28.9818,-94.9186,1011.2,11111222 
TABS,ioos:station:wmo:42043:1,2011-08-04T06:30:00Z,28.9818,-94.9186,1011.31,11111222 
TABS,ioos:station:wmo:42043:1,2011-08-04T07:00:00Z,28.9818,-94.9186,1011.04,11111222 
TABS,ioos:station:wmo:42043:1,2011-08-04T07:30:00Z,28.9818,-94.9186,1010.77,11111222 
TABS,ioos:station:wmo:42043:1,2011-08-04T08:00:00Z,28.9818,-94.9186,1010.79,11111222 
TABS,ioos:station:wmo:42043:1,2011-08-04T08:30:00Z,28.9818,-94.9186,1010.8,11111222 
TABS,ioos:station:wmo:42043:1,2011-08-04T09:00:00Z,28.9818,-94.9186,1010.75,11111222 
TABS,ioos:station:wmo:42043:1,2011-08-04T09:30:00Z,28.9818,-94.9186,1010.98,11111222 
TABS,ioos:station:wmo:42043:1,2011-08-04T10:00:00Z,28.9818,-94.9186,1011.38,11111222 
TABS,ioos:station:wmo:42043:1,2011-08-04T10:30:00Z,28.9818,-94.9186,1011.75,11111222 
TABS,ioos:station:wmo:42043:1,2011-08-04T11:00:00Z,28.9818,-94.9186,1012.18,11111222 
TABS,ioos:station:wmo:42043:1,2011-08-04T11:30:00Z,28.9818,-94.9186,1012.4,11111222 
TABS,ioos:station:wmo:42043:1,2011-08-04T12:00:00Z,28.9818,-94.9186,1012.55,11111222 
TABS,ioos:station:wmo:42043:1,2011-08-04T12:30:00Z,28.9818,-94.9186,1012.71,11111222 
TABS,ioos:station:wmo:42043:1,2011-08-04T13:00:00Z,28.9818,-94.9186,1012.95,11111222 
TABS,ioos:station:wmo:42043:1,2011-08-04T13:30:00Z,28.9818,-94.9186,1012.91,11111222 
TABS,ioos:station:wmo:42043:1,2011-08-04T14:00:00Z,28.9818,-94.9186,1013.1,11111222 
TABS,ioos:station:wmo:42043:1,2011-08-04T14:30:00Z,28.9818,-94.9186,1013.26,11111222 
TABS,ioos:station:wmo:42043:1,2011-08-04T15:00:00Z,28.9818,-94.9186,1013.56,11111222 
TABS,ioos:station:wmo:42043:1,2011-08-04T15:30:00Z,28.9818,-94.9186,1013.73,11111222 
TABS,ioos:station:wmo:42043:1,2011-08-04T16:00:00Z,28.9818,-94.9186,1013.83,11111222 
TABS,ioos:station:wmo:42043:1,2011-08-04T16:30:00Z,28.9818,-94.9186,1013.71,11111222 
TABS,ioos:station:wmo:42043:1,2011-08-04T17:00:00Z,28.9818,-94.9186,1013.56,11111222 
TABS,ioos:station:wmo:42043:1,2011-08-04T17:30:00Z,28.9818,-94.9186,1013.59,11111222 
TABS,ioos:station:wmo:42043:1,2011-08-04T18:00:00Z,28.9818,-94.9186,1013.46,11111222 
TABS,ioos:station:wmo:42043:1,2011-08-04T18:30:00Z,28.9818,-94.9186,1013.22,11111222 
TABS,ioos:station:wmo:42043:1,2011-08-04T19:00:00Z,28.9818,-94.9186,1013.07,11111222 
TABS,ioos:station:wmo:42043:1,2011-08-04T19:30:00Z,28.9818,-94.9186,1012.93,11111222 
TABS,ioos:station:wmo:42043:1,2011-08-04T20:00:00Z,28.9818,-94.9186,1012.55,11111222 
TABS,ioos:station:wmo:42043:1,2011-08-04T20:30:00Z,28.9818,-94.9186,1012.39,11111222 
TABS,ioos:station:wmo:42043:1,2011-08-04T21:00:00Z,28.9818,-94.9186,1012.12,11111222 
TABS,ioos:station:wmo:42043:1,2011-08-04T21:30:00Z,28.9818,-94.9186,1011.85,11111222 
TABS,ioos:station:wmo:42043:1,2011-08-04T22:00:00Z,28.9818,-94.9186,1011.62,11111222 
TABS,ioos:station:wmo:42043:1,2011-08-04T22:30:00Z,28.9818,-94.9186,1011.51,11111222 
TABS,ioos:station:wmo:42043:1,2011-08-04T23:00:00Z,28.9818,-94.9186,1011.41,11111222 
TABS,ioos:station:wmo:42043:1,2011-08-04T23:30:00Z,28.9818,-94.9186,1011.32,11111222 
TABS,ioos:station:wmo:42043:1,2011-08-05T00:00:00Z,28.9818,-94.9186,1011.34,11111222 
TABS,ioos:station:wmo:42043:1,2011-08-05T00:30:00Z,28.9818,-94.9186,1011.39,11111222 
TABS,ioos:station:wmo:42043:1,2011-08-05T01:00:00Z,28.9818,-94.9186,1011.44,11111222 
TABS,ioos:station:wmo:42043:1,2011-08-05T01:30:00Z,28.9818,-94.9186,1011.24,11111222 
TABS,ioos:station:wmo:42043:1,2011-08-05T02:00:00Z,28.9818,-94.9186,1011.53,11111222 
TABS,ioos:station:wmo:42043:1,2011-08-05T02:30:00Z,28.9818,-94.9186,1012.04,11111222 
TABS,ioos:station:wmo:42043:1,2011-08-05T03:00:00Z,28.9818,-94.9186,1012.4,11111222 
TABS,ioos:station:wmo:42043:1,2011-08-05T03:30:00Z,28.9818,-94.9186,1012.66,11111222 
TABS,ioos:station:wmo:42043:1,2011-08-05T04:00:00Z,28.9818,-94.9186,1012.92,11111222 
TABS,ioos:station:wmo:42043:1,2011-08-05T04:30:00Z,28.9818,-94.9186,1012.92,11111222 
TABS,ioos:station:wmo:42043:1,2011-08-05T05:00:00Z,28.9818,-94.9186,1013.38,11111222 
TABS,ioos:station:wmo:42043:1,2011-08-05T05:30:00Z,28.9818,-94.9186,1013.68,11111222 
TABS,ioos:station:wmo:42043:1,2011-08-05T06:00:00Z,28.9818,-94.9186,1013.42,11111222 
TABS,ioos:station:wmo:42043:1,2011-08-05T06:30:00Z,28.9818,-94.9186,1013.31,11111222 
TABS,ioos:station:wmo:42043:1,2011-08-05T07:00:00Z,28.9818,-94.9186,1013.15,11111222 
TABS,ioos:station:wmo:42043:1,2011-08-05T07:30:00Z,28.9818,-94.9186,1012.58,11111222 
TABS,ioos:station:wmo:42043:1,2011-08-05T08:00:00Z,28.9818,-94.9186,1012.4,11111222 
TABS,ioos:station:wmo:42043:1,2011-08-05T08:30:00Z,28.9818,-94.9186,1012.61,11111222 
TABS,ioos:station:wmo:42043:1,2011-08-05T09:00:00Z,28.9818,-94.9186,1012.47,11111222 
TABS,ioos:station:wmo:42043:1,2011-08-05T09:30:00Z,28.9818,-94.9186,1012.14,11111222 
TABS,ioos:station:wmo:42043:1,2011-08-05T10:00:00Z,28.9818,-94.9186,1012.35,11111222 
TABS,ioos:station:wmo:42043:1,2011-08-05T10:30:00Z,28.9818,-94.9186,1012.69,11111222 
TABS,ioos:station:wmo:42043:1,2011-08-05T11:00:00Z,28.9818,-94.9186,1012.85,11111222 
TABS,ioos:station:wmo:42043:1,2011-08-05T11:30:00Z,28.9818,-94.9186,1013.02,11111222 
TABS,ioos:station:wmo:42043:1,2011-08-05T12:00:00Z,28.9818,-94.9186,1013.11,11111222 
TABS,ioos:station:wmo:42043:1,2011-08-05T12:30:00Z,28.9818,-94.9186,1013.42,11111222 
TABS,ioos:station:wmo:42043:1,2011-08-05T13:00:00Z,28.9818,-94.9186,1013.52,11111222 
TABS,ioos:station:wmo:42043:1,2011-08-05T13:30:00Z,28.9818,-94.9186,1013.65,11111222 
TABS,ioos:station:wmo:42043:1,2011-08-05T14:00:00Z,28.9818,-94.9186,1013.8,11111222 
TABS,ioos:station:wmo:42043:1,2011-08-05T14:30:00Z,28.9818,-94.9186,1014.13,11111222 
TABS,ioos:station:wmo:42043:1,2011-08-05T15:00:00Z,28.9818,-94.9186,1014.09,11111222 
TABS,ioos:station:wmo:42043:1,2011-08-05T15:30:00Z,28.9818,-94.9186,1014.37,11111222 
TABS,ioos:station:wmo:42043:1,2011-08-05T16:00:00Z,28.9818,-94.9186,1014.45,11111222 
TABS,ioos:station:wmo:42043:1,2011-08-05T16:30:00Z,28.9818,-94.9186,1014.46,11111222 
TABS,ioos:station:wmo:42043:1,2011-08-05T17:00:00Z,28.9818,-94.9186,1014.42,11111222 
TABS,ioos:station:wmo:42043:1,2011-08-05T17:30:00Z,28.9818,-94.9186,1014.33,11111222 
TABS,ioos:station:wmo:42043:1,2011-08-05T18:00:00Z,28.9818,-94.9186,1014.07,11111222 
TABS,ioos:station:wmo:42043:1,2011-08-05T18:30:00Z,28.9818,-94.9186,1013.78,11111222 
TABS,ioos:station:wmo:42043:1,2011-08-05T19:00:00Z,28.9818,-94.9186,1013.51,11111222 
TABS,ioos:station:wmo:42043:1,2011-08-05T19:30:00Z,28.9818,-94.9186,1013.39,11111222 
TABS,ioos:station:wmo:42043:1,2011-08-05T20:00:00Z,28.9818,-94.9186,1012.98,11111222 
TABS,ioos:station:wmo:42043:1,2011-08-05T20:30:00Z,28.9818,-94.9186,1012.8,11111222 
TABS,ioos:station:wmo:42043:1,2011-08-05T21:00:00Z,28.9818,-94.9186,1012.75,11111222 
TABS,ioos:station:wmo:42043:1,2011-08-05T21:30:00Z,28.9818,-94.9186,1012.75,11111222 
TABS,ioos:station:wmo:42043:1,2011-08-05T22:00:00Z,28.9818,-94.9186,1012.72,11111222 
TABS,ioos:station:wmo:42043:1,2011-08-05T22:30:00Z,28.9818,-94.9186,1012.52,11111222 
TABS,ioos:station:wmo:42043:1,2011-08-05T23:00:00Z,28.9818,-94.9186,1012.27,11111222 
TABS,ioos:station:wmo:42043:1,2011-08-05T23:30:00Z,28.9818,-94.9186,1012.05,11111222 
TABS,ioos:station:wmo:42043:1,2011-08-06T00:00:00Z,28.9818,-94.9186,1011.86,11111222 
TABS,ioos:station:wmo:42043:1,2011-08-06T00:30:00Z,28.9818,-94.9186,1012.29,11111222 
TABS,ioos:station:wmo:42043:1,2011-08-06T01:00:00Z,28.9818,-94.9186,1012.34,11111222 
TABS,ioos:station:wmo:42043:1,2011-08-06T01:30:00Z,28.9818,-94.9186,1012.55,11111222 
TABS,ioos:station:wmo:42043:1,2011-08-06T02:00:00Z,28.9818,-94.9186,1012.6,11111222 
TABS,ioos:station:wmo:42043:1,2011-08-06T02:30:00Z,28.9818,-94.9186,1012.76,11111222 
TABS,ioos:station:wmo:42043:1,2011-08-06T03:00:00Z,28.9818,-94.9186,1013.01,11111222 
TABS,ioos:station:wmo:42043:1,2011-08-06T03:30:00Z,28.9818,-94.9186,1012.87,11111222 
TABS,ioos:station:wmo:42043:1,2011-08-06T04:00:00Z,28.9818,-94.9186,1013.08,11111222 
TABS,ioos:station:wmo:42043:1,2011-08-06T04:30:00Z,28.9818,-94.9186,1013.14,11111222 
TABS,ioos:station:wmo:42043:1,2011-08-06T05:00:00Z,28.9818,-94.9186,1013.17,11111222 
TABS,ioos:station:wmo:42043:1,2011-08-06T05:30:00Z,28.9818,-94.9186,1012.94,11111222 
TABS,ioos:station:wmo:42043:1,2011-08-06T06:00:00Z,28.9818,-94.9186,1013.08,11111222 
TABS,ioos:station:wmo:42043:1,2011-08-06T06:30:00Z,28.9818,-94.9186,1013.12,11111222 
TABS,ioos:station:wmo:42043:1,2011-08-06T07:00:00Z,28.9818,-94.9186,1012.95,11111222 
TABS,ioos:station:wmo:42043:1,2011-08-06T07:30:00Z,28.9818,-94.9186,1012.89,11111222 
TABS,ioos:station:wmo:42043:1,2011-08-06T08:00:00Z,28.9818,-94.9186,1012.97,11111222 
TABS,ioos:station:wmo:42043:1,2011-08-06T08:30:00Z,28.9818,-94.9186,1012.98,11111222 
TABS,ioos:station:wmo:42043:1,2011-08-06T09:00:00Z,28.9818,-94.9186,1012.96,11111222 
TABS,ioos:station:wmo:42043:1,2011-08-06T09:30:00Z,28.9818,-94.9186,1012.91,11111222 
TABS,ioos:station:wmo:42043:1,2011-08-06T10:00:00Z,28.9818,-94.9186,1013.31,11111222 
TABS,ioos:station:wmo:42043:1,2011-08-06T10:30:00Z,28.9818,-94.9186,1013.44,11111222 
TABS,ioos:station:wmo:42043:1,2011-08-06T11:00:00Z,28.9818,-94.9186,1013.66,11111222 
TABS,ioos:station:wmo:42043:1,2011-08-06T11:30:00Z,28.9818,-94.9186,1013.74,11111222 
TABS,ioos:station:wmo:42043:1,2011-08-06T12:00:00Z,28.9818,-94.9186,1013.86,11111222 
TABS,ioos:station:wmo:42043:1,2011-08-06T12:30:00Z,28.9818,-94.9186,1013.94,11111222 
TABS,ioos:station:wmo:42043:1,2011-08-06T13:00:00Z,28.9818,-94.9186,1013.99,11111222 
TABS,ioos:station:wmo:42043:1,2011-08-06T13:30:00Z,28.9818,-94.9186,1014.1,11111222 
TABS,ioos:station:wmo:42043:1,2011-08-06T14:00:00Z,28.9818,-94.9186,1014.3,11111222 
TABS,ioos:station:wmo:42043:1,2011-08-06T14:30:00Z,28.9818,-94.9186,1014.34,11111222 
TABS,ioos:station:wmo:42043:1,2011-08-06T15:00:00Z,28.9818,-94.9186,1014.69,11111222 
TABS,ioos:station:wmo:42043:1,2011-08-06T15:30:00Z,28.9818,-94.9186,1014.68,11111222 
TABS,ioos:station:wmo:42043:1,2011-08-06T16:00:00Z,28.9818,-94.9186,1014.92,11111222 
TABS,ioos:station:wmo:42043:1,2011-08-06T16:30:00Z,28.9818,-94.9186,1014.59,11111222 
TABS,ioos:station:wmo:42043:1,2011-08-06T17:00:00Z,28.9818,-94.9186,1014.61,11111222 
TABS,ioos:station:wmo:42043:1,2011-08-06T17:30:00Z,28.9818,-94.9186,1014.68,11111222 
TABS,ioos:station:wmo:42043:1,2011-08-06T18:00:00Z,28.9818,-94.9186,1014.56,11111222 
TABS,ioos:station:wmo:42043:1,2011-08-06T18:30:00Z,28.9818,-94.9186,1014.37,11111222 